Weather History for LIRF - April, 2013

Change the Weather History Date:

Monday, April 29, 2013

  Actual Average Record
Temperature  
Mean Temperature 70 °F -  
Max Temperature 82 °F 72 °F 82 °F (2013)
Min Temperature 57 °F 53 °F 44 °F (2005)
Cooling Degree Days 4    
Growing Degree Days 20 (Base 50)    
Moisture  
Dew Point 49 °F    
Average Humidity 50    
Maximum Humidity 88    
Minimum Humidity 24    
Precipitation  
Precipitation 0.00 in 0.04 in - ()
Sea Level Pressure  
Sea Level Pressure 29.98 in    
Wind  
Wind Speed 7 mph ()    
Max Wind Speed 21 mph    
Max Gust Speed -    
Averages and records for this station are not official NWS values.
T = Trace of Precipitation, MM = Missing Value Source: Averaged Metar Reports

Daily Weather History Graph

Daily Weather History Graph

Search for Another Location

Airport or City:

Trip Planner

Search our weather history database for the weather conditions in past years. The results will help you decide how hot, cold, wet, or windy it might be!

Date:

Astronomy

Apr. 29, 2013 Rise Set
Actual Time 6:10 AM CEST 8:07 PM CEST
Civil Twilight 5:40 AM CEST 8:37 PM CEST
Nautical Twilight 5:03 AM CEST 9:14 PM CEST
Astronomical Twilight 4:23 AM CEST 9:54 PM CEST
Moon No Moon Rise 9:10 AM CEST (4/29)
Length of Visible Light 14h 57m
Length of Day
13h 57m
Waning Gibbous, 82% of the Moon is Illuminated
Apr 29
Waning Gibbous
May 2
Last Quarter
May 10
New
May 18
First Quarter
May 25
Full

Hourly Weather History & Observations

Time (CEST) Temp. Dew Point Humidity Pressure Visibility Wind Dir Wind Speed Gust Speed Precip Events Conditions
12:20 AM 59.0 °F 55.4 °F 88% 29.95 in - Variable 2.3 mph - N/A   Clear
12:50 AM 59.0 °F 53.6 °F 82% 29.95 in - Variable 2.3 mph - N/A   Clear
1:20 AM 59.0 °F 55.4 °F 88% 29.95 in - East 3.5 mph - N/A   Clear
1:50 AM 60.8 °F 53.6 °F 77% 29.95 in - ESE 5.8 mph - N/A   Clear
2:50 AM 59.0 °F 53.6 °F 82% 29.98 in - Variable 3.5 mph - N/A   Clear
3:20 AM 59.0 °F 53.6 °F 82% 29.98 in - NE 4.6 mph - N/A   Clear
3:50 AM 59.0 °F 53.6 °F 82% 29.95 in - ENE 5.8 mph - N/A   Clear
4:20 AM 59.0 °F 51.8 °F 77% 29.95 in - East 6.9 mph - N/A   Clear
4:50 AM 62.6 °F 51.8 °F 68% 29.95 in - East 6.9 mph - N/A   Clear
5:20 AM 59.0 °F 51.8 °F 77% 29.95 in - East 6.9 mph - N/A   Clear
5:50 AM 57.2 °F 51.8 °F 82% 29.95 in - Variable 3.5 mph - N/A   Clear
6:20 AM 59.0 °F 51.8 °F 77% 29.95 in - ENE 5.8 mph - N/A   Clear
6:50 AM 59.0 °F 51.8 °F 77% 29.95 in - Variable 2.3 mph - N/A   Clear
7:20 AM 60.8 °F 53.6 °F 77% 29.95 in - SE 4.6 mph - N/A   Clear
7:50 AM 66.2 °F 57.2 °F 73% 29.98 in - Variable 3.5 mph - N/A   Clear
8:20 AM 68.0 °F 59.0 °F 73% 29.98 in - Variable 2.3 mph - N/A   Clear
8:50 AM 71.6 °F 57.2 °F 60% 29.98 in - Variable 3.5 mph - N/A   Clear
9:20 AM 75.2 °F 51.8 °F 44% 30.01 in - ESE 4.6 mph - N/A   Clear
9:50 AM 77.0 °F 53.6 °F 44% 30.01 in - SE 6.9 mph - N/A   Clear
10:20 AM 78.8 °F 53.6 °F 42% 30.01 in - SE 8.1 mph - N/A   Clear
10:50 AM 80.6 °F 51.8 °F 37% 30.01 in - SE 10.4 mph - N/A   Clear
11:20 AM 80.6 °F 50.0 °F 34% 30.01 in - SE 12.7 mph - N/A   Clear
11:50 AM 82.4 °F 51.8 °F 35% 30.01 in - SSE 12.7 mph - N/A   Clear
12:20 PM 82.4 °F 50.0 °F 32% 30.01 in - South 12.7 mph - N/A   Clear
12:50 PM 82.4 °F 44.6 °F 26% 30.01 in - SSE 16.1 mph - N/A   Clear
1:20 PM 82.4 °F 48.2 °F 30% 30.01 in - South 15.0 mph - N/A   Clear
1:50 PM 82.4 °F 46.4 °F 28% 29.98 in - SSE 17.3 mph - N/A   Clear
2:20 PM 82.4 °F 46.4 °F 28% 29.98 in - South 16.1 mph - N/A   Clear
2:50 PM 80.6 °F 41.0 °F 24% 29.98 in - SSE 19.6 mph - N/A   Clear
3:20 PM 80.6 °F 46.4 °F 30% 29.98 in - SSE 19.6 mph - N/A   Clear
3:50 PM 80.6 °F 44.6 °F 28% 29.98 in - SSE 20.7 mph - N/A   Clear
4:20 PM 78.8 °F 42.8 °F 28% 29.98 in - SSE 18.4 mph - N/A   Clear
4:50 PM 78.8 °F 42.8 °F 28% 29.98 in - South 19.6 mph - N/A   Clear
5:20 PM 77.0 °F 46.4 °F 34% 29.98 in - South 15.0 mph - N/A   Clear
5:50 PM 78.8 °F 44.6 °F 30% 29.98 in - SSE 12.7 mph - N/A   Clear
6:20 PM 78.8 °F 46.4 °F 32% 29.98 in - SSE 11.5 mph - N/A   Clear
6:50 PM 77.0 °F 41.0 °F 28% 29.98 in - SE 15.0 mph - N/A   Clear
7:20 PM 77.0 °F 41.0 °F 28% 29.98 in - SE 10.4 mph - N/A   Clear
7:50 PM 73.4 °F 44.6 °F 36% 29.95 in - ESE 10.4 mph - N/A   Clear
8:20 PM 71.6 °F 44.6 °F 38% 29.95 in - ESE 8.1 mph - N/A   Clear
8:50 PM 71.6 °F 44.6 °F 38% 29.95 in - East 9.2 mph - N/A   Clear
9:20 PM 71.6 °F 42.8 °F 35% 29.98 in - ESE 8.1 mph - N/A   Clear
9:50 PM 69.8 °F 42.8 °F 38% 29.98 in - ESE 8.1 mph - N/A   Clear
10:20 PM 69.8 °F 42.8 °F 38% 29.95 in - East 8.1 mph - N/A   Clear
10:50 PM 69.8 °F 42.8 °F 38% 29.98 in - ESE 6.9 mph - N/A   Clear
11:20 PM 68.0 °F 44.6 °F 43% 30.01 in - SE 3.5 mph - N/A   Clear
11:50 PM 64.4 °F 50.0 °F 59% 30.01 in - Variable 3.5 mph - N/A   Clear